RH
17 18 18 18 19 20 20 21 21 20 20 20 20 21 21 21 22 24 25 27 29 31 33 33 39 53 65 64 52 34 22 21 22 21 21 21 21 22 23 26 30 33
18 17 17 18 18 19 20 21 22 22 22 22 21 21 21 21 23 26 29 31 33 36 38 38 38 45 51 46 34 25 22 22 22 21 22 21 22 23 23 26 28 31
27 25 21 19 18 18 20 21 23 25 26 26 24 22 21 21 23 27 31 34 37 40 46 51 46 40 36 31 25 23 22 21 21 21 21 22 23 23 24 25 27 29
36 35 32 26 21 19 20 22 24 27 30 32 33 33 34 33 31 31 33 35 38 46 59 66 59 45 36 29 24 22 20 20 20 20 21 22 23 24 25 25 26 29
35 36 38 35 29 24 22 25 27 29 36 49 59 66 68 65 58 55 56 54 54 60 69 70 61 47 35 28 25 21 20 19 19 20 21 21 23 24 25 26 27 28
32 34 39 39 33 29 27 28 31 39 55 75 86 91 92 88 81 77 74 68 63 60 60 60 56 44 33 27 24 21 19 18 18 20 21 21 22 23 25 26 26 27
34 35 38 41 36 31 31 34 42 59 78 90 93 94 95 92 86 82 80 76 72 65 59 56 54 48 40 34 29 24 20 18 17 19 20 20 21 22 24 26 26 27
39 37 37 41 40 34 34 42 56 72 84 90 91 92 90 86 81 79 80 82 83 81 77 72 67 60 52 44 37 30 23 19 18 18 19 20 20 22 23 26 27 27
40 36 35 39 41 38 39 49 62 73 82 87 89 86 82 80 77 75 77 79 81 82 81 81 80 74 64 54 45 36 27 22 20 19 19 19 20 21 23 25 27 27
30 29 31 38 41 41 43 51 62 72 80 84 82 79 76 74 72 70 70 73 78 82 81 77 76 74 69 61 51 41 33 27 23 20 20 20 20 22 22 25 27 28
18 22 30 39 42 43 46 53 63 70 75 76 73 72 70 67 66 64 60 59 62 70 76 78 76 71 67 62 54 45 37 30 25 22 21 21 22 23 23 25 27 28
16 23 33 40 42 44 49 55 62 66 68 68 67 67 65 62 62 60 57 53 49 49 55 64 72 73 68 62 54 46 39 32 27 23 22 22 23 24 25 27 28 29
22 28 36 40 42 45 51 56 60 62 63 62 62 62 60 57 56 55 54 52 47 45 47 51 60 66 63 56 48 42 37 32 27 24 23 23 24 26 28 30 30 30
23 28 34 38 41 45 48 52 56 58 58 58 58 56 54 53 52 51 51 48 46 51 56 57 58 59 55 48 42 37 33 29 27 25 24 25 27 30 31 32 32 30
26 31 36 39 42 44 46 49 51 53 54 54 53 51 48 47 46 46 47 49 53 61 65 63 57 52 48 42 36 33 29 27 26 26 27 29 30 31 32 33 33 33
37 40 41 42 42 43 43 45 44 45 46 45 45 45 45 46 48 51 56 61 68 70 65 56 49 42 38 34 31 29 27 26 27 28 30 31 31 32 33 35 37 38
37 39 38 38 39 39 40 41 41 43 45 48 52 56 60 65 67 70 72 71 67 59 49 41 36 32 30 29 28 27 27 27 28 29 31 31 33 34 35 37 40 42
32 33 35 37 39 41 42 44 48 55 61 68 74 75 75 74 71 66 60 53 45 38 33 31 29 29 29 29 29 29 30 31 31 33 34 35 36 37 38 40 42 43
34 36 39 42 45 47 50 53 58 64 69 72 71 65 58 52 46 41 36 32 30 28 29 30 31 32 32 33 35 36 37 38 39 40 41 41 42 42 43 43 43 42
41 42 43 44 45 46 47 47 48 48 48 47 44 39 35 33 31 30 29 29 29 30 32 33 35 37 39 41 43 43 44 44 44 43 43 42 41 39 38 37 35 33
37 37 37 37 37 37 36 35 35 34 33 32 32 31 31 31 31 31 32 33 34 35 37 39 41 43 44 44 43 42 40 38 36 34 32 29 28 26 25 24 22 21
35 35 36 36 36 36 36 36 36 36 35 35 36 37 38 38 39 39 40 41 41 42 42 41 40 38 35 33 31 28 25 23 21 20 19 19 20 19 18 17 18 18
42 42 42 42 43 43 44 44 43 43 43 43 43 43 43 43 42 41 39 37 35 33 31 28 26 23 21 19 18 16 15 15 15 16 17 19 20 19 19 19 20 20
40 40 39 39 39 39 39 39 38 37 36 35 33 32 31 28 26 24 22 21 19 18 17 17 17 17 17 17 17 16 16 15 17 18 19 22 23 23 23 22 22 23
25 24 24 23 22 22 22 21 21 20 19 19 18 17 17 16 16 15 15 15 15 15 16 16 18 19 20 20 21 21 20 19 20 21 22 24 25 26 26 26 26 25
18 17 17 16 16 16 16 16 16 16 16 15 16 16 16 17 17 16 17 18 18 18 19 19 20 20 21 22 23 23 24 23 23 23 24 25 26 27 27 26 26 25
Wind_Speed
13 13 12 11 11 10 9 10 9 8 8 7 8 7 7 7 6 6 7 7 7 8 10 11 13 13 13 13 14 15 16 17 17 18 18 19 19 20 20 20 21 22
17 16 15 14 13 13 13 12 11 10 10 10 10 10 9 9 9 9 10 10 11 12 13 13 14 14 14 14 14 15 16 18 18 18 19 20 20 20 21 21 21 22
18 18 18 17 16 16 16 15 13 13 13 13 13 13 12 11 11 12 12 12 13 14 15 15 16 16 16 16 16 16 17 19 19 19 20 20 21 22 22 22 23 23
17 17 18 18 18 18 17 16 15 15 15 14 14 14 14 14 14 14 15 15 16 16 17 17 17 18 18 18 18 17 18 19 20 21 21 21 22 23 23 24 24 25
17 17 17 18 19 19 18 17 17 17 16 14 14 14 15 15 16 16 16 17 17 18 18 18 18 18 19 20 20 19 19 20 21 22 22 22 23 24 25 25 26 26
18 18 18 19 20 20 20 19 18 17 16 15 16 16 16 16 16 16 16 18 19 19 19 19 19 20 21 21 22 22 21 21 22 23 24 24 24 25 26 27 27 28
21 20 21 21 21 22 21 20 19 18 17 18 18 18 17 17 16 16 17 19 20 20 20 20 21 22 22 23 23 23 23 23 23 24 25 26 26 26 27 29 29 29
25 24 24 23 23 23 22 21 21 20 21 21 21 20 19 19 18 18 19 20 22 23 23 23 23 24 25 25 25 25 25 25 24 25 26 28 28 29 29 30 31 31
29 28 27 26 26 26 25 24 24 25 25 25 23 22 22 22 21 21 21 21 23 24 26 26 27 27 28 28 27 27 27 27 27 27 28 29 30 31 31 32 33 33
32 32 30 29 29 28 27 28 28 28 28 27 26 25 25 25 24 24 24 24 24 26 28 29 29 30 31 31 30 29 29 30 30 30 30 31 33 34 34 35 35 35
35 34 33 32 31 30 30 30 30 31 30 29 29 28 28 28 28 27 27 27 27 28 30 31 32 32 33 34 33 32 32 32 32 32 32 33 34 36 37 37 38 38
36 35 35 33 32 31 32 32 33 33 32 31 31 32 32 31 31 31 31 31 31 32 33 33 34 35 36 36 36 35 34 34 34 35 35 36 37 38 40 40 41 41
38 37 36 34 33 33 34 35 35 35 34 34 34 34 35 34 35 34 34 34 35 35 36 36 37 37 38 38 38 37 37 36 37 37 38 38 39 41 42 43 44 44
38 37 36 35 35 36 36 37 37 37 37 37 37 37 37 37 37 37 37 38 38 38 38 38 39 39 40 40 40 39 39 39 39 40 40 41 42 43 45 46 47 47
37 36 36 36 35 36 37 37 38 39 39 39 40 40 40 40 40 40 40 40 40 40 40 40 40 41 41 42 42 41 41 41 42 42 43 44 45 46 48 49 50 49
36 36 36 36 37 37 38 38 39 40 41 41 42 42 42 42 41 42 42 42 42 42 42 42 42 42 43 44 44 44 44 44 45 46 46 47 48 49 50 51 52 52
38 38 38 38 39 39 40 40 41 42 43 43 44 44 43 43 43 44 44 44 43 43 43 44 44 44 45 46 46 46 47 47 48 49 50 50 51 52 52 53 54 55
41 41 41 41 42 42 43 43 43 44 44 45 46 46 45 45 46 46 46 45 45 45 45 46 47 48 48 49 49 49 49 50 51 52 53 53 54 55 56 56 57 58
43 43 43 44 44 44 44 44 45 45 46 47 47 47 47 47 47 47 47 47 47 48 48 49 50 51 51 51 52 52 52 53 54 55 56 57 58 59 59 60 60 61
44 44 44 44 44 44 45 46 46 47 47 48 48 48 48 49 49 49 49 50 50 50 51 52 53 54 54 55 55 55 55 56 57 58 59 60 61 61 61 62 63 63
46 46 46 45 45 46 47 48 49 49 49 49 50 50 51 51 51 52 52 52 53 54 55 56 57 57 58 59 59 59 59 58 59 60 61 62 62 62 62 62 62 62
48 48 48 48 48 49 50 51 52 52 51 51 52 52 53 53 54 54 55 55 56 57 58 59 60 60 61 61 61 61 60 59 58 58 58 59 59 59 59 59 59 59
50 50 51 51 52 53 54 54 54 54 54 54 55 55 56 57 57 57 57 58 58 58 59 59 59 59 59 59 59 59 58 56 54 53 53 54 55 56 56 56 56 57
53 54 54 54 55 56 57 57 56 56 57 57 57 57 57 57 57 57 56 56 56 56 55 55 54 54 55 55 56 56 55 53 52 50 49 49 51 53 54 54 55 56
54 54 54 54 55 55 55 55 55 55 55 55 54 54 54 53 53 52 52 52 51 51 50 50 50 50 50 51 52 52 53 52 51 49 47 47 48 49 51 52 54 55
48 48 49 49 49 49 49 49 49 49 49 49 48 48 48 48 48 47 47 47 47 47 47 47 48 48 47 48 49 50 50 50 49 49 47 45 44 45 47 50 51 53
Wind_Direction
223 228 235 238 241 245 244 244 245 245 245 245 250 252 255 260 266 275 285 291 297 302 305 310 316 320 323 326 328 331 334 337 340 345 347 348 349 348 348 349 350 352
222 228 235 240 246 251 253 255 258 260 259 257 258 259 259 260 265 271 277 284 292 298 303 308 312 315 317 319 323 326 328 331 335 339 343 345 345 345 344 344 345 347
222 227 232 236 241 246 252 259 264 266 266 266 266 264 265 265 267 269 272 278 285 291 298 303 305 307 309 312 316 320 322 324 328 332 337 339 340 340 340 339 340 341
221 226 231 234 237 241 248 254 259 262 265 268 269 270 272 273 273 274 276 280 284 290 296 300 301 302 303 306 309 313 317 319 321 325 330 333 335 335 335 335 335 336
227 232 235 237 237 240 243 247 251 254 257 263 269 272 275 278 279 281 284 287 290 295 299 300 301 301 301 303 304 306 310 313 316 319 323 327 330 330 331 331 331 332
233 237 240 241 240 239 240 242 245 247 251 258 263 266 270 275 280 285 289 293 295 297 300 301 301 300 300 300 301 303 305 309 311 313 316 320 323 325 326 327 327 328
234 238 240 241 240 239 238 239 240 243 247 252 258 263 268 272 277 284 289 292 296 297 299 300 299 299 298 297 300 302 303 305 307 309 311 314 317 319 320 322 323 324
234 238 238 239 239 237 235 235 237 240 245 250 256 263 269 273 277 281 284 287 291 293 295 297 297 295 295 296 299 301 301 303 304 305 307 309 311 314 315 317 318 319
236 237 238 237 236 233 232 232 236 240 244 249 255 261 268 273 277 280 282 284 286 289 291 292 292 293 294 295 298 299 300 300 302 303 304 305 307 309 311 313 314 315
238 238 237 236 235 231 231 233 237 241 245 250 256 262 267 271 275 279 282 284 285 287 288 289 290 291 292 294 295 297 298 299 301 302 302 303 304 306 308 309 310 311
238 238 238 237 235 233 234 237 240 244 247 251 257 262 267 270 273 276 280 283 285 286 287 288 289 290 290 291 293 295 297 299 300 300 301 302 302 303 305 306 307 308
237 238 239 238 237 236 238 240 243 245 248 252 257 262 266 270 273 275 279 282 285 287 287 287 287 288 289 290 292 294 295 297 298 299 299 300 300 301 303 304 305 306
236 238 239 239 238 238 240 242 244 247 250 254 258 262 266 270 273 277 280 282 285 287 287 286 286 286 287 289 290 293 294 295 296 297 298 299 300 300 301 302 302 303
237 240 242 242 241 242 244 246 248 251 255 258 262 265 269 272 275 278 280 283 285 286 286 285 285 285 286 287 289 291 292 293 294 295 296 297 298 299 299 300 300 302
240 243 245 245 246 247 249 251 253 256 259 261 264 268 271 273 276 278 279 281 282 283 283 283 283 284 285 286 288 290 291 292 293 294 295 296 297 297 298 298 299 300
242 244 245 247 248 249 251 253 255 258 260 262 265 267 270 272 275 276 277 278 280 280 281 281 282 283 284 285 287 289 290 291 292 293 294 295 295 296 296 297 298 299
243 244 245 248 249 250 252 253 255 258 260 263 266 268 270 273 274 275 276 277 278 278 279 281 282 283 284 285 287 288 289 290 291 292 293 294 294 294 294 295 296 297
245 246 247 249 251 252 253 255 257 260 263 265 268 270 272 273 273 274 276 277 277 278 280 281 282 283 284 285 287 288 289 290 291 292 292 292 293 293 293 294 295 296
247 248 249 251 253 255 257 259 261 263 265 267 269 271 272 273 274 275 276 277 278 279 280 281 282 283 284 286 287 288 289 290 291 291 291 291 292 292 293 293 293 294
249 250 251 253 256 258 260 262 263 264 265 267 269 270 271 273 274 275 276 277 279 280 281 282 283 284 285 286 287 287 288 289 289 289 290 290 290 291 291 291 291 292
253 254 256 257 258 260 261 262 263 264 265 267 268 270 271 273 274 275 277 278 279 280 281 282 283 284 284 285 285 286 287 287 288 288 289 289 289 289 290 290 291 291
257 258 259 260 260 261 262 262 264 265 267 268 270 271 272 273 274 276 277 278 279 280 281 282 283 283 283 284 285 286 286 287 287 288 288 289 289 289 290 290 291 291
259 260 260 261 261 262 263 264 266 267 268 269 270 271 272 273 274 275 276 277 278 279 280 282 282 283 284 285 285 286 286 286 287 287 288 289 289 290 290 291 292 292
259 260 261 262 263 264 264 265 266 267 268 269 270 271 272 273 274 275 276 277 278 279 280 281 282 283 284 285 286 287 287 287 287 287 287 288 289 291 292 292 293 293
258 259 260 262 263 264 265 266 266 267 268 269 270 271 273 274 275 276 278 279 279 280 280 280 281 282 283 284 286 287 288 289 289 288 288 288 289 292 293 293 293 293
258 259 260 261 262 264 266 267 268 269 270 271 273 274 275 276 277 278 279 279 280 280 281 281 281 282 283 283 284 285 287 288 288 289 288 288 289 291 291 292 292 293